Abingdon, VA

4:58 AM EDT on May 28, 2017 (GMT -0400)
Virginia Highlands

Weather History for KVJI - February, 2013

Change the Weather History Date:

Monday, February 18, 2013

  Actual Average (KTRI) Record (KTRI)
Temperature  
Mean Temperature 37 °F -  
Max Temperature 54 °F 49 °F 70 °F (1948)
Min Temperature 20 °F 29 °F -5 °F (1958)
Degree Days  
Heating Degree Days 28    
Moisture  
Dew Point 21 °F    
Average Humidity 55    
Maximum Humidity 80    
Minimum Humidity 38    
Precipitation  
Precipitation 0.00 in - - ()
Sea Level Pressure  
Sea Level Pressure 30.18 in    
Wind  
Wind Speed 3 mph (SW)    
Max Wind Speed 13 mph    
Max Gust Speed 20 mph    
Visibility 10 miles    
Events      
Averages and records for this station are not official NWS values.
T = Trace of Precipitation, MM = Missing Value Source: NWS Daily Summary

Daily Weather History Graph

Daily Weather History Graph

Search for Another Location

Airport or City:

Trip Planner

Search our weather history database for the weather conditions in past years. The results will help you decide how hot, cold, wet, or windy it might be!

Date:

Astronomy

Feb. 18, 2013 Rise Set
Actual Time 7:12 AM EST 6:12 PM EST
Civil Twilight 6:46 AM EST 6:38 PM EST
Nautical Twilight 6:16 AM EST 7:08 PM EST
Astronomical Twilight 5:46 AM EST 7:38 PM EST
Moon 12:01 PM EST (2/18) 1:46 AM EST (2/18)
Length of Visible Light 11h 52m
Length of Day
10h 59m
First Quarter, 58% of the Moon is Illuminated
Feb 18
First Quarter
Feb 25
Full
Mar 4
Last Quarter
Mar 11
New
Mar 19
First Quarter

Hourly Weather History & Observations

Time (EST) Temp. Windchill Dew Point Humidity Pressure Visibility Wind Dir Wind Speed Gust Speed Precip Events Conditions
12:15 AM 22.5 °F - 14.4 °F 71% 30.19 in 10.0 mi Calm Calm - N/A   Clear
12:35 AM 22.3 °F - 14.4 °F 72% 30.19 in 10.0 mi Calm Calm - N/A   Clear
12:55 AM 22.6 °F - 14.4 °F 71% 30.19 in 10.0 mi Calm Calm - N/A   Clear
1:15 AM 21.7 °F - 14.5 °F 74% 30.20 in 10.0 mi Calm Calm - N/A   Clear
1:35 AM 22.1 °F - 14.2 °F 72% 30.20 in 10.0 mi Calm Calm - N/A   Clear
1:55 AM 21.2 °F - 14.5 °F 75% 30.20 in 10.0 mi Calm Calm - N/A   Clear
2:15 AM 23.2 °F - 13.8 °F 67% 30.21 in 10.0 mi Calm Calm - N/A   Clear
2:35 AM 22.5 °F - 14.2 °F 71% 30.21 in 10.0 mi Calm Calm - N/A   Clear
2:55 AM 22.5 °F - 13.8 °F 69% 30.21 in 10.0 mi Calm Calm - N/A   Clear
3:15 AM 21.6 °F - 14.4 °F 74% 30.22 in 10.0 mi Calm Calm - N/A   Clear
3:35 AM 22.1 °F - 14.0 °F 71% 30.22 in 10.0 mi Calm Calm - N/A   Clear
3:55 AM 21.6 °F - 14.2 °F 73% 30.22 in 10.0 mi Calm Calm - N/A   Clear
4:15 AM 20.3 °F - 14.9 °F 80% 30.23 in 10.0 mi Calm Calm - N/A   Clear
4:35 AM 20.7 °F - 14.4 °F 77% 30.23 in 10.0 mi Calm Calm - N/A   Scattered Clouds
5:15 AM 21.4 °F - 14.5 °F 75% 30.25 in 10.0 mi Calm Calm - N/A   Mostly Cloudy
5:35 AM 21.9 °F - 15.4 °F 76% 30.25 in 10.0 mi Calm Calm - N/A   Mostly Cloudy
5:55 AM 22.3 °F 16.1 °F 14.9 °F 73% 30.26 in 10.0 mi East 4.6 mph - N/A   Scattered Clouds
6:15 AM 22.8 °F 18.2 °F 14.9 °F 72% 30.27 in 10.0 mi East 3.5 mph - N/A   Clear
6:35 AM 21.7 °F - 15.4 °F 77% 30.26 in 10.0 mi Calm Calm - N/A   Clear
6:55 AM 21.9 °F - 14.7 °F 74% 30.26 in 10.0 mi Calm Calm - N/A   Clear
7:15 AM 22.5 °F - 14.5 °F 72% 30.26 in 10.0 mi Calm Calm - N/A   Clear
7:35 AM 21.6 °F - 14.7 °F 75% 30.27 in 10.0 mi Calm Calm - N/A   Clear
7:55 AM 22.3 °F - 14.7 °F 73% 30.26 in 10.0 mi Calm Calm - N/A   Unknown
8:15 AM 23.9 °F - 16.5 °F 73% 30.27 in 10.0 mi Calm Calm - N/A   Clear
8:35 AM 28.2 °F 22.0 °F 17.2 °F 63% 30.27 in 10.0 mi East 5.8 mph - N/A   Clear
8:55 AM 29.8 °F 23.9 °F 16.7 °F 58% 30.27 in 10.0 mi East 5.8 mph - N/A   Clear
9:15 AM 31.8 °F 27.3 °F 18.0 °F 57% 30.27 in 10.0 mi East 4.6 mph - N/A   Clear
9:35 AM 33.8 °F 29.6 °F 19.0 °F 55% 30.27 in 10.0 mi ESE 4.6 mph - N/A   Clear
9:55 AM 36.0 °F 32.1 °F 18.0 °F 48% 30.27 in 10.0 mi ESE 4.6 mph - N/A   Clear
10:15 AM 38.3 °F - 18.1 °F 44% 30.27 in 10.0 mi Calm Calm - N/A   Clear
10:35 AM 40.5 °F - 19.0 °F 42% 30.27 in 10.0 mi Calm Calm - N/A   Clear
10:55 AM 41.9 °F 39.0 °F 19.8 °F 41% 30.27 in 10.0 mi SW 4.6 mph - N/A   Clear
11:15 AM 43.2 °F 39.0 °F 20.3 °F 40% 30.27 in 10.0 mi SW 6.9 mph - N/A   Clear
11:35 AM 44.8 °F 40.4 °F 21.4 °F 40% 30.27 in 10.0 mi West 8.1 mph - N/A   Clear
11:55 AM 45.7 °F 41.5 °F 21.6 °F 38% 30.26 in 10.0 mi West 8.1 mph - N/A   Clear
12:15 PM 46.6 °F - 22.3 °F 38% 30.25 in 10.0 mi West 10.4 mph - N/A   Clear
12:35 PM 47.8 °F - 23.4 °F 38% 30.24 in 10.0 mi West 10.4 mph - N/A   Clear
12:55 PM 48.6 °F - 23.9 °F 38% 30.23 in 10.0 mi West 10.4 mph - N/A   Clear
1:15 PM 49.5 °F - 24.6 °F 38% 30.21 in 10.0 mi West 12.7 mph 19.6 mph N/A   Clear
1:35 PM 50.5 °F - 26.2 °F 39% 30.20 in 10.0 mi West 6.9 mph 16.1 mph N/A   Clear
1:55 PM 50.2 °F - 26.4 °F 40% 30.19 in 10.0 mi WSW 11.5 mph - N/A   Clear
2:15 PM 51.6 °F - 28.4 °F 41% 30.18 in 10.0 mi West 10.4 mph - N/A   Clear
2:35 PM 52.0 °F - 29.5 °F 42% 30.17 in 10.0 mi West 11.5 mph 17.3 mph N/A   Clear
2:55 PM 52.7 °F - 30.2 °F 42% 30.16 in 10.0 mi West 9.2 mph - N/A   Clear
3:15 PM 53.1 °F - 30.6 °F 42% 30.15 in 10.0 mi West 9.2 mph - N/A   Clear
3:35 PM 53.1 °F - 31.3 °F 43% 30.14 in 10.0 mi West 8.1 mph - N/A   Clear
3:55 PM 53.6 °F - 31.1 °F 42% 30.14 in 10.0 mi West 6.9 mph - N/A   Clear
4:35 PM 54.3 °F - 31.3 °F 42% 30.13 in 10.0 mi West 3.5 mph - N/A   Clear
4:55 PM 54.3 °F - 31.3 °F 42% 30.12 in 10.0 mi Calm Calm - N/A   Clear
5:15 PM 54.1 °F - 31.8 °F 43% 30.11 in 10.0 mi WSW 4.6 mph - N/A   Clear
5:35 PM 53.6 °F - 31.5 °F 43% 30.11 in 10.0 mi SW 4.6 mph - N/A   Clear
6:15 PM 52.0 °F - 31.6 °F 46% 30.10 in 10.0 mi South 4.6 mph - N/A   Clear
6:35 PM 50.4 °F - 29.3 °F 44% 30.10 in 10.0 mi South 6.9 mph - N/A   Clear
6:55 PM 49.1 °F - 27.0 °F 42% 30.10 in 10.0 mi South 9.2 mph - N/A   Clear
7:15 PM 48.4 °F - 26.6 °F 43% 30.10 in 10.0 mi South 8.1 mph - N/A   Clear
7:55 PM 46.4 °F 45.2 °F 26.2 °F 45% 30.09 in 10.0 mi SSW 3.5 mph - N/A   Clear
8:15 PM 45.7 °F 44.4 °F 25.7 °F 46% 30.09 in 10.0 mi SW 3.5 mph - N/A   Clear
8:35 PM 43.5 °F 41.9 °F 25.9 °F 50% 30.08 in 10.0 mi WSW 3.5 mph - N/A   Clear
9:15 PM 43.3 °F 41.7 °F 25.9 °F 50% 30.08 in 10.0 mi SW 3.5 mph - N/A   Clear
9:35 PM 43.7 °F 40.3 °F 25.7 °F 49% 30.07 in 10.0 mi South 5.8 mph - N/A   Clear
9:55 PM 43.7 °F 42.1 °F 25.9 °F 50% 30.06 in 10.0 mi South 3.5 mph - N/A   Clear
10:15 PM 43.9 °F 42.3 °F 25.9 °F 49% 30.05 in 10.0 mi South 3.5 mph - N/A   Scattered Clouds
10:35 PM 42.6 °F - 25.7 °F 51% 30.03 in 10.0 mi Calm Calm - N/A   Scattered Clouds
10:55 PM 40.8 °F - 25.7 °F 55% 30.02 in 10.0 mi Calm Calm - N/A   Clear
11:15 PM 40.3 °F 36.3 °F 25.7 °F 56% 30.02 in 10.0 mi WSW 5.8 mph - N/A   Clear
11:35 PM 43.7 °F 38.1 °F 25.9 °F 50% 30.01 in 10.0 mi WSW 10.4 mph - N/A   Clear
11:55 PM 45.7 °F 42.0 °F 26.1 °F 46% 30.01 in 10.0 mi SW 6.9 mph - N/A   Clear